Weather History for Monroe, NC

Change the Weather History Date:

Friday, February 17, 2012

  Actual Average (KCLT) Record (KCLT)
Temperature  
Mean Temperature 52 °F 44 °F  
Max Temperature 60 °F 55 °F 79 °F (1927)
Min Temperature 43 °F 33 °F 7 °F (1958)
Degree Days  
Heating Degree Days 14 21  
Month to date heating degree days 379  
Since 1 July heating degree days 2486  
Cooling Degree Days 0 0  
Month to date cooling degree days 0  
Year to date cooling degree days 0  
Growing Degree Days 2 (Base 50)    
Moisture  
Dew Point 45 °F    
Average Humidity 88    
Maximum Humidity 100    
Minimum Humidity 47    
Precipitation  
Precipitation 0.00 in 0.13 in 1.47 in (1879)
Month to date precipitation 1.91  
Year to date precipitation 5.32  
Snow  
Snow 0.00 in 0.00 in 1.00 in (1896)
Month to date snowfall 0.7  
Since 1 July snowfall 3.2  
Snow Depth -    
Sea Level Pressure  
Sea Level Pressure 30.09 in    
Wind  
Wind Speed 3 mph (NW)    
Max Wind Speed 8 mph    
Max Gust Speed -    
Visibility 5 miles    
Events Fog    
T = Trace of Precipitation, MM = Missing Value Source: NWS Daily Summary

Daily Weather History Graph

Daily Weather History Graph

Search for Another Location

Airport:

Trip Planner

Search our weather history database for the weather conditions in past years. The results will help you decide how hot, cold, wet, or windy it might be!

Date:

Astronomy

Feb. 17, 2012 Rise Set
Actual Time 7:06 AM EST 6:06 PM EST
Civil Twilight 6:41 AM EST 6:32 PM EST
Nautical Twilight 6:11 AM EST 7:02 PM EST
Astronomical Twilight 5:42 AM EST 7:31 PM EST
Moon 3:49 AM EST (2/17) 2:04 PM EST (2/17)
Length of Visible Light 11h 51m
Length of Day
10h 59m
Waning Crescent, 19% of the Moon is Illuminated
Feb 17
Waning Crescent
Feb 21
New
Feb 29
First Quarter
Mar 8
Full
Mar 14
Last Quarter

Hourly Weather History & Observations

Time (EST) Temp. Windchill Dew Point Humidity Pressure Visibility Wind Dir Wind Speed Gust Speed Precip Events Conditions
12:06 AM 50.0 °F - 50.0 °F 100% 30.04 in 1.8 mi WNW 5.8 mph - N/A   Overcast
12:23 AM 50.0 °F - 50.0 °F 100% 30.05 in 2.0 mi West 3.5 mph - N/A   Overcast
12:53 AM 50.0 °F - 50.0 °F 100% 30.09 in 2.5 mi NW 3.5 mph - N/A   Overcast
1:14 AM 48.2 °F - 48.2 °F 100% 30.05 in 3.0 mi WNW 5.8 mph - N/A   Overcast
1:53 AM 48.9 °F - 48.9 °F 100% 30.09 in - NW 3.5 mph - N/A   Unknown
2:15 AM 48.2 °F - 48.2 °F 100% 30.05 in 2.5 mi Calm Calm - N/A   Overcast
2:27 AM 48.2 °F - 48.2 °F 100% 30.06 in 1.2 mi Calm Calm - N/A   Overcast
2:44 AM 48.2 °F - 48.2 °F 100% 30.07 in 0.8 mi WNW 3.5 mph - N/A   Overcast
2:53 AM 48.0 °F - 48.0 °F 100% 30.10 in 0.8 mi NW 4.6 mph - N/A   Mist
3:09 AM 48.2 °F - 48.2 °F 100% 30.05 in 1.2 mi NW 4.6 mph - N/A   Overcast
3:23 AM 48.2 °F - 48.2 °F 100% 30.05 in 0.8 mi NNW 6.9 mph - N/A   Overcast
3:42 AM 46.4 °F 44.3 °F 46.4 °F 100% 30.04 in 0.5 mi North 4.6 mph - N/A Fog Fog
3:53 AM 46.9 °F - 46.9 °F 100% 30.08 in 0.5 mi Calm Calm - N/A Fog Fog
4:14 AM 46.4 °F 45.2 °F 46.4 °F 100% 30.04 in 1.0 mi NW 3.5 mph - N/A   Mist
4:26 AM 46.4 °F 45.2 °F 46.4 °F 100% 30.04 in 0.8 mi NNW 3.5 mph - N/A   Overcast
4:41 AM 46.4 °F 45.2 °F 46.4 °F 100% 30.04 in 0.5 mi NW 3.5 mph - N/A Fog Fog
4:53 AM 46.9 °F - 46.9 °F 100% 30.09 in 0.8 mi West 3.5 mph - N/A   Mist
5:03 AM 46.4 °F 45.2 °F 46.4 °F 100% 30.06 in 1.2 mi West 3.5 mph - N/A   Overcast
5:40 AM 46.4 °F 45.2 °F 46.4 °F 100% 30.06 in 0.5 mi North 3.5 mph - N/A Fog Fog
5:53 AM 46.0 °F 44.8 °F 46.0 °F 100% 30.09 in 0.2 mi NNW 3.5 mph - N/A Fog Fog
7:53 AM 43.0 °F - 43.0 °F 100% 30.14 in 0.2 mi Calm Calm - N/A Fog Fog
8:07 AM 44.6 °F - 44.6 °F 100% 30.12 in 1.0 mi Calm Calm - N/A   Mist
8:10 AM 44.6 °F - 44.6 °F 100% 30.12 in 3.0 mi Calm Calm - N/A   Mostly Cloudy
8:13 AM 44.6 °F - 44.6 °F 100% 30.12 in 1.8 mi Calm Calm - N/A   Mostly Cloudy
8:24 AM 44.6 °F - 44.6 °F 100% 30.12 in 2.0 mi Calm Calm - N/A   Partly Cloudy
8:32 AM 46.4 °F - 44.6 °F 93% 30.12 in 7.0 mi Calm Calm - N/A   Partly Cloudy
8:53 AM 46.0 °F 44.8 °F 45.0 °F 96% 30.17 in 10.0 mi Variable 3.5 mph - N/A   Clear
9:53 AM 52.0 °F - 43.0 °F 71% 30.16 in 10.0 mi NNE 8.1 mph - N/A   Clear
10:53 AM 55.0 °F - 42.1 °F 62% 30.17 in 10.0 mi NNE 4.6 mph - N/A   Clear
11:53 AM 55.9 °F - 39.0 °F 53% 30.15 in 10.0 mi NNW 5.8 mph - N/A   Clear
12:53 PM 55.9 °F - 39.9 °F 55% 30.13 in 10.0 mi Calm Calm - N/A   Clear
1:53 PM 57.9 °F - 39.0 °F 49% 30.10 in 10.0 mi Variable 3.5 mph - N/A   Clear
2:53 PM 59.0 °F - 39.9 °F 49% 30.09 in 10.0 mi NNW 3.5 mph - N/A   Clear
4:53 PM 60.1 °F - 39.9 °F 47% 30.09 in 10.0 mi West 5.8 mph - N/A   Clear
5:53 PM 55.9 °F - 41.0 °F 57% 30.09 in 10.0 mi SW 4.6 mph - N/A   Clear
6:53 PM 54.0 °F - 39.9 °F 59% 30.12 in 10.0 mi WSW 4.6 mph - N/A   Clear
7:53 PM 51.1 °F - 41.0 °F 68% 30.12 in 10.0 mi Calm Calm - N/A   Clear
8:53 PM 46.0 °F - 41.0 °F 83% 30.12 in 10.0 mi Calm Calm - N/A   Clear
9:53 PM 46.0 °F - 41.0 °F 83% 30.14 in 10.0 mi Calm Calm - N/A   Clear
11:53 PM 45.0 °F - 41.0 °F 86% 30.13 in 10.0 mi Calm Calm - N/A   Clear